Wind_Speed
96 96 97 98 99 100 101 102 103 104 106 107 107 109 110 111 112 114 115 116 117 118 119 119 119 118 117 115 114 112 111 110 109 109 109 110 110 111 112 114 115 116 118 119 120 121 122 122 122 122 121 120 119 117 116 114 113 111 110 109 107 107 106 105 104 103 102 101 100 99 98 97 96 95 95 94 93 93 92 92 91 91 91 90 90 90
97 98 99 99 100 102 103 104 105 106 107 108 110 111 112 113 115 116 117 118 118 119 119 119 118 116 115 113 112 111 110 110 110 110 111 112 113 114 115 116 118 119 120 121 122 122 122 121 120 119 117 116 114 112 111 109 107 106 105 104 103 102 101 101 100 99 98 97 96 95 94 93 92 92 91 90 90 89 89 88 88 88 88 87 87 87
98 99 100 101 102 103 105 106 107 108 109 110 112 113 114 115 117 118 118 119 119 119 118 117 116 115 113 112 111 111 111 111 112 113 114 115 116 117 118 119 120 121 122 122 122 121 120 118 117 115 113 111 109 107 105 104 103 102 101 100 99 98 98 97 96 95 94 93 92 91 90 89 89 88 88 87 87 86 86 86 85 85 85 84 84 84
99 101 102 103 104 105 106 108 109 110 111 112 114 115 116 117 118 119 119 119 119 118 117 116 114 113 112 112 112 112 113 114 115 116 117 118 119 120 120 121 122 122 122 121 120 118 116 114 112 109 108 106 104 102 101 100 99 98 97 96 95 95 94 93 92 91 90 89 88 88 87 86 86 85 85 85 84 84 83 83 83 82 82 82 81 81
100 102 103 104 105 107 108 109 111 112 113 114 116 117 118 118 119 119 119 118 118 116 115 114 113 112 112 113 113 114 115 116 117 118 119 120 121 122 122 122 122 122 120 119 116 114 111 109 107 105 103 101 100 98 97 96 95 94 93 93 92 91 90 89 88 88 87 86 85 85 84 84 83 83 83 82 82 81 81 81 80 80 80 79 79 79
102 103 104 106 107 109 110 111 113 114 115 116 117 118 118 119 119 118 118 117 116 114 114 113 112 113 114 115 116 117 118 119 120 121 122 122 123 123 122 122 121 119 117 114 112 109 106 104 102 100 99 97 96 95 94 93 92 91 90 90 89 88 87 86 85 85 84 83 83 82 82 81 81 81 80 80 79 79 79 78 78 78 78 77 77 77
103 104 106 107 109 110 112 113 115 116 117 118 118 118 118 118 117 117 116 115 114 113 113 113 114 115 116 117 118 119 120 121 122 123 123 123 123 122 121 120 118 115 112 109 107 104 102 100 98 96 95 94 93 92 91 90 89 88 87 87 86 85 84 83 82 82 81 81 80 80 80 79 79 79 78 78 77 77 77 77 76 76 76 75 75 75
105 106 108 109 111 112 114 115 116 117 118 118 119 118 118 117 115 114 114 113 113 113 114 115 116 117 118 120 121 122 123 123 124 124 123 123 121 120 118 116 113 110 108 105 102 100 98 96 94 93 92 91 90 89 88 87 86 85 85 84 83 82 81 81 80 80 79 79 78 78 78 77 77 77 76 76 75 75 75 75 74 74 74 74 74 73
107 108 110 111 113 114 116 117 118 118 118 118 118 118 117 115 114 113 112 112 113 114 115 117 118 120 121 122 123 124 124 124 124 123 122 121 119 116 114 111 108 106 103 101 98 96 94 93 91 90 89 88 87 86 85 84 84 83 82 81 80 79 79 78 78 77 77 76 76 76 75 75 75 74 74 74 73 73 73 73 72 72 72 72 72 72
108 110 112 113 115 116 117 119 119 119 118 118 117 116 115 114 113 113 113 113 114 116 117 119 121 123 124 125 125 125 124 124 122 121 119 117 114 112 109 107 104 102 99 97 95 93 91 90 88 87 86 85 84 84 83 82 81 80 79 78 78 77 76 76 75 75 74 74 73 73 73 72 72 72 72 72 71 71 71 70 70 70 70 70 70 70
111 112 114 116 117 118 118 119 119 119 118 117 116 114 113 112 112 112 114 115 117 118 120 122 123 125 126 127 126 125 123 122 119 117 115 112 110 107 104 102 100 98 96 94 92 90 88 87 86 85 84 83 82 81 80 79 79 77 77 76 75 74 74 73 73 72 72 71 71 70 70 70 70 70 69 69 69 69 68 68 68 68 68 68 68 68
113 115 116 117 118 119 119 119 119 118 116 115 114 113 112 112 112 113 115 117 119 121 123 124 126 127 127 127 125 123 120 118 116 113 111 108 105 102 100 98 96 94 92 90 88 87 85 84 83 82 81 80 79 79 78 77 76 75 74 73 72 71 71 70 70 69 69 68 68 68 68 67 67 67 67 67 66 66 66 66 66 66 66 66 66 66
115 116 118 119 119 120 119 119 118 116 114 113 112 112 113 113 114 115 117 119 121 123 125 127 128 128 126 125 122 119 116 113 111 109 107 104 102 99 96 95 93 91 89 87 86 84 83 82 81 80 79 78 77 76 75 74 73 72 71 70 69 69 68 67 67 66 66 66 66 65 65 65 65 64 64 64 64 64 64 64 64 64 64 64 64 64
117 118 119 119 119 119 118 117 116 114 113 112 112 112 114 115 116 118 120 122 124 125 126 128 128 127 125 121 118 114 111 108 106 104 103 100 98 95 93 91 90 88 86 85 83 82 80 79 78 77 76 75 74 73 72 71 70 69 68 67 66 66 65 64 64 64 63 63 63 63 63 62 62 62 62 62 62 62 62 62 62 62 62 62 62 62
118 119 119 119 118 117 116 114 113 112 112 112 112 114 115 117 119 121 123 125 126 127 127 127 126 124 121 117 113 109 105 103 101 100 99 97 95 92 90 88 87 86 84 82 81 79 78 76 75 75 73 72 71 70 69 68 67 66 65 64 64 63 62 62 61 61 61 61 61 60 60 60 60 60 60 60 60 60 60 60 60 60 60 60 60 60
118 118 118 117 116 115 113 112 112 112 112 113 114 116 118 120 122 123 125 127 127 127 126 125 123 120 117 112 108 104 101 99 97 96 95 94 92 89 87 86 84 83 82 80 78 77 75 74 73 72 70 69 68 67 66 65 64 63 62 61 61 60 60 59 59 59 59 59 58 58 58 58 58 58 58 58 58 58 58 58 58 58 58 58 59 59
117 116 116 115 114 112 111 111 111 112 114 115 117 118 120 122 124 126 126 127 126 125 123 120 118 115 112 108 104 100 97 94 93 92 91 91 89 87 85 83 82 80 79 77 75 74 72 71 70 69 68 66 65 64 63 62 61 60 60 59 58 58 57 57 57 57 57 57 56 56 56 56 56 56 56 56 56 56 56 56 56 57 57 57 57 58
115 114 113 112 111 111 111 112 113 114 116 117 119 121 123 124 125 126 126 125 123 121 118 115 112 110 107 104 101 97 93 91 90 89 88 88 87 85 82 80 79 77 76 74 72 71 69 68 67 66 65 64 63 62 61 60 59 58 57 57 56 56 55 55 55 55 55 55 55 54 54 54 54 54 54 54 54 54 54 55 55 55 56 56 56 56
113 111 111 110 110 111 112 114 115 117 119 120 122 124 125 126 126 125 123 121 119 116 113 110 107 105 102 100 97 93 90 88 86 86 85 85 84 82 80 78 76 74 73 71 69 68 67 66 65 63 62 61 61 60 59 58 57 56 55 55 54 54 53 53 53 53 53 53 53 53 52 53 53 53 53 53 53 53 53 53 54 54 54 55 55 55
111 110 110 110 111 113 115 116 118 120 121 123 124 125 126 125 124 122 119 117 113 111 108 105 103 100 98 95 92 89 87 84 83 83 82 82 82 80 78 75 73 71 69 68 66 65 64 63 62 61 60 59 58 58 57 56 55 54 53 53 52 52 51 51 51 51 51 51 51 51 51 51 51 51 51 51 51 51 51 52 52 53 53 54 54 54
110 110 111 112 113 115 118 119 121 122 124 124 125 125 124 122 120 117 114 111 108 106 103 101 99 97 94 92 89 86 83 81 80 80 79 80 79 77 75 72 70 68 66 65 63 62 61 60 60 59 58 57 56 56 55 54 53 52 51 51 50 50 50 50 50 49 49 49 49 49 49 49 49 49 49 49 49 50 50 50 51 52 52 52 52 52
111 112 113 114 116 118 120 122 124 124 125 124 124 123 120 118 115 112 109 107 104 102 100 98 96 94 91 89 86 83 81 78 77 76 76 76 76 74 72 69 67 65 64 62 61 59 59 58 57 56 56 55 55 54 53 52 51 50 50 49 49 49 49 48 48 48 48 48 48 48 48 48 48 48 47 48 48 48 48 49 50 50 51 51 51 51
112 114 116 117 119 121 122 124 125 125 124 122 120 118 115 112 110 107 105 102 100 98 96 94 93 91 89 86 84 81 78 75 73 72 72 72 72 71 69 66 64 63 61 60 58 57 56 55 55 54 54 53 53 53 52 50 50 49 48 48 48 48 47 47 47 47 47 47 47 47 47 46 46 46 46 46 46 47 47 48 49 49 49 50 49 49
114 116 118 120 122 123 124 125 124 123 121 118 115 112 109 107 104 102 100 98 96 94 92 91 89 88 86 84 81 78 75 72 70 69 69 69 69 68 66 64 62 60 59 58 56 55 54 54 53 52 52 52 52 51 50 49 48 47 47 47 47 47 46 46 46 46 46 45 45 45 45 45 45 45 45 45 45 46 46 47 47 48 48 48 48 48
117 119 120 122 123 124 124 123 121 119 116 113 110 107 104 102 100 98 96 93 91 90 89 87 86 85 83 81 78 76 72 69 67 66 66 66 66 65 63 61 60 58 57 56 54 53 52 52 51 51 50 50 50 49 49 48 47 46 46 45 45 45 45 45 45 45 45 44 44 44 44 44 44 44 43 44 44 44 45 45 46 46 47 47 47 46
119 121 122 123 123 122 121 119 116 113 110 107 105 102 100 98 96 94 92 90 88 86 85 84 83 82 80 78 76 73 70 67 65 63 63 63 63 62 61 59 57 56 55 54 53 52 51 50 50 49 49 49 49 48 47 46 45 45 45 44 44 44 44 44 44 44 44 43 43 43 43 43 42 42 43 43 43 43 44 44 44 45 45 45 45 45
121 122 122 122 121 119 116 114 111 108 105 102 100 97 95 93 92 90 88 86 85 83 82 81 79 78 77 75 73 70 67 64 62 61 60 60 60 59 58 56 55 54 53 53 52 50 49 49 48 48 48 47 47 46 46 45 44 44 43 43 43 43 43 43 43 43 43 42 42 42 41 41 41 41 42 42 42 42 42 42 43 43 43 43 43 43
122 122 121 119 117 114 111 108 106 103 100 98 95 93 91 89 87 86 84 83 81 80 79 77 76 75 74 72 70 68 65 62 60 59 58 58 57 57 55 54 53 52 51 51 50 49 48 47 46 46 46 46 45 45 44 43 43 42 42 42 41 41 41 42 42 42 42 41 41 41 40 40 40 40 40 40 41 41 41 41 41 41 42 42 42 41
120 119 117 114 111 109 106 103 101 98 96 93 91 89 87 85 83 82 81 79 78 77 75 74 73 71 70 69 68 66 63 60 58 57 56 56 55 55 53 52 51 50 49 49 49 48 46 45 45 44 44 44 44 43 42 42 41 41 41 40 40 40 40 40 40 40 40 40 40 39 39 39 39 39 39 39 39 39 39 39 39 39 40 40 40 40
118 115 112 109 106 104 101 99 97 94 92 89 87 85 83 81 79 78 77 75 74 73 72 71 69 68 67 66 65 63 61 58 56 55 54 54 54 53 51 50 49 48 47 47 47 46 45 44 43 42 43 43 42 42 41 41 40 40 39 39 39 39 39 39 39 39 39 39 39 38 38 38 37 37 38 38 38 38 38 38 38 38 38 38 39 39
114 111 108 105 102 100 97 95 92 90 88 86 84 81 80 78 76 75 73 72 70 69 68 67 66 65 64 63 62 61 59 57 54 53 53 53 52 51 50 49 47 46 45 45 45 45 44 43 41 40 40 41 41 40 40 39 39 39 38 38 38 38 38 38 38 38 38 38 37 37 37 36 36 36 36 36 36 37 36 36 36 37 37 37 37 37
109 106 104 101 98 96 93 91 89 87 85 82 80 79 77 75 73 71 70 68 67 66 65 64 63 62 61 60 59 58 57 55 53 52 51 51 51 50 49 47 46 45 44 43 43 43 43 42 40 39 39 39 39 39 38 38 38 38 37 37 37 36 36 36 37 37 37 37 37 36 36 35 35 35 35 35 35 35 35 35 35 35 36 36 36 36
104 102 99 97 94 92 89 87 85 83 81 79 78 76 74 72 70 68 67 65 64 63 62 61 60 59 58 57 57 56 54 53 51 50 50 50 49 49 48 46 45 44 43 42 42 42 41 41 40 38 37 37 37 37 37 37 37 37 37 36 36 36 35 35 35 35 36 36 36 35 34 34 33 33 33 33 33 34 34 34 34 34 34 35 35 35
100 97 95 92 90 88 86 84 82 80 78 77 75 73 71 69 68 66 64 62 61 60 59 58 57 56 56 55 54 54 53 51 50 49 48 49 49 48 47 46 45 43 42 41 40 40 40 40 39 38 37 35 35 34 35 36 36 37 36 36 36 35 34 34 34 34 35 35 35 34 33 33 32 32 32 32 32 32 32 33 33 33 33 34 34 34
95 93 90 88 86 84 82 81 79 77 76 74 72 70 69 67 65 63 62 60 59 57 56 55 55 54 53 53 53 52 51 50 49 48 47 47 48 47 47 46 44 43 42 41 40 39 39 38 38 37 36 35 33 33 33 34 35 36 36 36 35 34 34 33 33 33 34 34 34 33 32 32 31 30 30 30 30 31 31 31 32 32 32 32 33 33
91 88 86 84 82 80 79 77 76 74 73 71 69 68 66 64 63 61 59 58 57 55 54 54 53 52 52 51 51 51 50 49 48 47 47 46 47 47 47 46 44 43 42 40 39 38 38 37 37 36 35 34 33 32 31 32 34 35 35 35 35 34 33 32 32 33 33 33 33 32 31 30 30 29 29 29 29 29 30 30 30 30 31 31 32 32
86 84 82 80 79 77 76 74 73 71 70 68 67 65 63 62 61 59 58 56 55 54 53 52 51 51 50 50 50 50 50 49 48 47 47 46 46 46 46 45 44 43 41 40 39 38 37 37 36 35 34 33 32 31 31 31 32 34 34 34 34 33 32 32 32 32 32 32 32 31 30 30 29 28 27 27 27 28 28 29 29 29 30 30 30 31
82 80 79 77 75 74 73 71 70 68 67 66 64 63 61 60 59 57 56 55 54 53 52 52 51 50 49 49 48 49 49 49 49 48 47 46 46 45 45 45 44 42 41 39 38 37 37 36 36 35 34 33 31 30 30 30 31 32 33 33 33 32 31 31 31 31 31 31 31 31 30 29 28 27 26 26 26 26 27 27 28 28 29 29 30 30
79 77 76 74 73 71 70 68 67 66 64 63 62 61 60 58 57 56 55 54 53 53 52 51 51 50 49 48 48 48 48 48 48 48 47 46 46 45 45 44 43 42 40 39 38 36 36 36 35 35 34 32 31 30 30 30 31 31 32 32 31 31 30 30 30 30 31 31 31 30 30 29 28 27 26 25 25 25 25 26 27 27 28 28 29 29
76 74 73 71 70 68 67 66 64 63 62 61 60 59 58 57 57 56 55 54 53 52 52 51 50 50 49 48 47 47 47 47 47 47 47 46 45 45 44 43 42 41 40 38 37 35 35 35 34 34 33 32 31 30 29 29 30 30 31 31 30 29 29 29 29 29 30 30 30 30 29 28 27 26 25 25 24 25 25 25 26 27 27 28 28 28
74 72 70 69 67 66 64 63 62 61 60 59 58 58 57 57 56 56 55 54 53 52 52 51 50 49 48 47 46 46 46 45 46 46 46 45 44 44 43 42 41 40 39 37 36 34 34 33 33 33 33 32 31 30 29 29 29 29 29 30 29 28 28 27 27 28 28 29 29 29 29 28 27 26 25 25 24 24 25 25 26 26 27 27 27 28
71 70 68 66 65 63 62 61 60 59 58 58 58 57 57 57 57 56 55 54 53 52 51 50 50 49 48 47 45 44 44 44 44 44 44 44 43 42 41 41 39 39 37 36 35 33 32 32 32 32 32 32 31 30 29 28 28 28 28 29 29 28 27 26 26 26 27 27 27 28 28 27 27 26 25 25 24 24 25 25 26 26 27 27 27 27
69 67 66 64 63 61 60 59 58 58 58 57 57 57 57 57 56 56 55 54 53 52 51 50 49 48 47 45 44 43 42 41 41 41 42 42 41 41 40 39 38 37 36 34 33 32 31 31 31 31 31 31 30 29 28 27 27 27 27 28 28 28 27 26 25 25 25 25 26 26 26 26 26 25 25 24 24 24 24 25 26 26 27 27 27 27
67 65 63 62 61 60 59 58 58 58 57 57 57 57 57 56 56 56 55 54 53 51 50 49 48 46 45 44 43 41 40 39 38 38 39 39 39 39 38 37 36 35 34 33 31 30 30 29 30 30 30 30 30 29 27 26 26 26 26 26 27 27 26 25 24 24 24 24 24 24 24 25 25 25 24 24 24 24 24 25 26 26 26 26 26 26
64 63 61 60 59 59 58 58 58 58 58 57 57 57 57 56 55 55 54 53 51 50 49 47 46 45 43 42 41 39 38 36 35 35 35 36 36 36 36 35 34 33 32 30 29 29 28 28 28 29 29 29 28 27 27 25 25 25 25 25 26 26 26 25 24 23 23 22 22 22 23 23 24 24 24 23 23 23 23 24 25 26 26 26 26 26
62 61 60 59 59 59 59 58 58 58 58 57 57 56 56 55 54 53 52 51 50 48 47 45 44 42 41 40 38 37 36 34 33 32 32 33 33 34 34 33 32 31 29 28 27 27 27 27 27 28 28 28 27 26 25 24 24 24 24 24 25 25 25 24 23 23 22 22 21 21 22 22 23 23 23 22 22 22 23 24 25 25 25 25 25 25
61 60 60 59 59 59 59 59 58 58 57 57 56 55 54 53 52 51 50 49 47 46 44 43 41 40 38 37 36 34 33 32 30 30 29 30 30 31 31 31 30 29 27 26 26 26 26 26 26 26 26 26 25 24 23 23 23 23 24 24 24 24 23 23 22 22 21 21 21 21 21 22 22 22 22 22 21 21 22 23 24 25 25 25 25 25
60 60 59 60 59 59 59 58 58 57 57 56 54 53 52 51 50 49 48 46 45 43 42 40 39 37 35 34 33 32 31 29 28 28 27 27 28 28 28 28 27 26 25 25 24 25 25 25 25 25 24 24 23 22 22 22 22 22 23 23 23 23 22 21 21 20 20 20 20 21 21 22 22 22 21 21 21 21 21 22 23 24 24 25 25 25
59 59 59 59 59 59 58 57 57 56 55 54 53 51 50 49 48 46 45 44 42 41 39 37 36 34 32 31 30 29 28 27 26 26 25 25 25 25 25 25 25 24 23 23 23 23 24 24 24 23 22 21 21 20 20 20 21 21 22 22 22 22 21 20 20 19 19 20 20 21 21 21 21 21 21 21 21 21 21 22 23 23 24 24 24 24
59 59 59 59 58 58 57 56 55 54 53 52 51 50 48 47 45 44 42 41 39 38 36 34 33 31 30 28 27 26 25 25 24 24 23 23 23 23 23 22 22 22 22 21 22 22 22 22 22 21 20 20 19 19 19 19 19 19 20 20 21 21 20 19 19 19 19 19 20 20 20 21 21 21 21 21 21 21 21 22 22 23 23 23 23 23
59 59 58 58 57 56 55 54 53 52 51 50 49 48 46 45 43 41 40 38 36 34 33 31 30 28 27 26 25 24 23 23 22 22 22 21 21 21 20 20 20 20 20 20 20 20 20 20 20 19 19 18 18 18 17 17 17 17 18 18 19 19 19 18 18 18 18 19 19 20 20 20 20 21 21 21 21 21 21 22 22 22 22 22 22 22
Wind_Direction
288 289 289 290 291 291 292 292 292 293 293 293 293 294 294 294 294 294 295 295 295 295 296 296 296 296 296 296 296 296 296 296 296 296 296 296 296 296 296 296 296 295 295 294 293 293 292 292 291 290 290 289 288 287 287 286 285 285 284 283 282 281 280 280 279 278 278 277 277 277 276 276 275 275 274 274 273 272 272 271 270 269 269 268 267 266
289 290 290 291 292 292 293 293 293 293 294 294 294 294 294 295 295 295 295 296 296 296 296 297 297 297 297 297 297 297 297 297 297 297 297 297 297 297 296 296 296 295 295 294 294 293 292 292 291 290 289 289 288 287 287 286 285 284 284 283 282 281 280 280 279 279 278 278 277 277 276 276 276 275 274 274 273 272 271 270 270 269 268 267 266 265
290 291 291 292 292 293 293 294 294 294 294 294 294 295 295 295 296 296 296 297 297 297 297 297 297 297 297 297 297 298 298 298 298 298 298 297 297 297 297 296 296 295 295 294 294 293 292 292 291 290 289 289 288 287 286 286 285 284 283 282 282 281 280 280 279 279 279 278 278 277 277 276 275 275 274 273 272 272 271 270 269 268 268 267 266 265
291 292 292 293 293 293 294 294 294 294 294 295 295 295 296 296 297 297 297 297 298 298 298 298 298 298 298 298 298 298 298 298 298 298 298 298 298 297 297 297 296 296 295 294 294 293 292 291 291 290 289 289 288 287 286 286 285 284 283 282 282 281 280 280 280 279 279 278 278 277 277 276 275 274 274 273 272 271 270 270 269 268 268 267 266 265
291 292 293 293 294 294 294 294 295 295 295 295 296 296 296 297 297 297 298 298 298 298 298 298 298 299 299 299 299 299 299 299 299 299 298 298 298 298 297 297 296 296 295 294 294 293 292 291 291 290 289 289 288 287 286 285 285 284 283 282 282 281 281 280 280 279 279 278 278 277 276 276 275 274 273 272 272 271 270 270 269 268 268 267 266 265
292 293 293 294 294 294 294 295 295 295 295 296 296 297 297 297 298 298 298 298 298 299 299 299 299 299 299 299 299 299 299 299 299 299 299 299 298 298 298 297 296 296 295 294 293 293 292 292 291 290 290 289 288 287 286 285 285 284 283 283 282 282 281 281 280 280 279 278 278 277 276 275 275 274 273 272 272 271 271 270 269 268 268 267 266 265
293 293 294 294 294 294 295 295 295 295 296 296 297 297 298 298 298 299 299 299 299 299 299 300 300 300 300 300 300 299 299 299 299 299 299 299 298 298 298 297 296 295 295 294 293 293 292 292 291 290 290 289 288 287 286 285 285 284 283 283 282 282 281 281 280 280 279 278 277 276 276 275 274 274 273 273 272 271 270 270 269 268 267 267 266 265
294 294 294 294 295 295 295 295 296 296 297 297 298 298 298 299 299 299 299 299 300 300 300 300 300 300 300 300 300 300 300 300 299 299 299 299 299 298 297 297 296 295 295 294 293 293 292 292 291 290 289 289 288 287 286 286 285 284 284 283 283 282 282 281 280 279 278 278 277 276 276 275 274 274 273 272 272 271 270 269 269 268 267 266 266 265
294 294 295 295 295 295 296 296 296 297 297 298 298 299 299 299 300 300 300 300 300 301 301 301 301 300 300 300 300 300 300 300 300 300 299 299 299 298 297 297 296 295 295 294 293 293 292 292 291 290 289 289 288 287 286 286 285 284 284 283 283 282 281 281 280 279 278 278 277 276 276 275 274 274 273 272 271 271 270 269 268 268 267 266 265 264
295 295 295 295 296 296 297 297 297 298 298 299 299 299 300 300 300 301 301 301 301 301 301 301 301 301 300 300 300 300 300 300 300 300 300 299 298 298 297 296 296 295 295 294 293 293 292 292 291 290 289 289 288 287 286 286 285 285 284 283 283 282 281 280 280 279 278 278 277 276 275 275 274 273 273 272 271 270 270 269 268 267 267 266 265 264
295 295 296 296 296 297 297 298 298 299 299 299 300 300 300 301 301 301 301 302 301 301 301 301 301 301 301 300 300 300 300 300 300 300 299 299 298 297 297 296 296 295 295 294 293 293 292 292 291 290 289 289 288 287 287 286 285 285 284 283 283 282 281 280 279 279 278 277 277 276 275 274 274 273 272 272 271 270 269 269 268 267 266 265 264 264
296 296 296 297 297 298 298 298 299 299 299 300 300 301 301 301 301 302 302 302 302 302 302 301 301 301 301 300 300 300 300 301 300 300 299 299 298 297 297 296 295 295 294 294 293 293 292 292 291 290 289 289 288 287 286 286 285 285 284 283 282 281 281 280 279 279 278 277 276 276 275 274 274 273 272 272 271 270 269 268 268 267 266 265 264 263
296 297 297 297 298 298 299 299 299 300 300 300 301 301 302 302 302 302 302 302 302 302 302 301 301 301 301 300 300 300 301 301 300 300 299 298 298 297 297 296 295 295 294 294 293 293 292 291 291 290 289 288 288 287 286 286 285 284 284 283 282 281 280 280 279 278 278 277 276 275 275 274 273 273 272 271 271 270 269 268 267 267 266 265 264 263
297 297 298 298 298 299 299 299 300 300 300 301 301 302 302 302 302 302 302 302 302 302 302 301 301 301 301 300 300 300 301 301 300 300 299 298 297 297 296 296 295 295 294 294 293 293 292 291 291 290 289 288 288 287 286 286 285 284 283 283 282 281 280 280 279 278 277 277 276 275 275 274 273 272 272 271 270 270 269 268 267 267 266 265 264 263
297 298 298 298 299 299 299 300 300 301 301 302 302 302 303 303 303 303 303 302 302 302 302 302 301 301 301 300 300 300 300 300 300 299 299 298 297 296 296 296 295 294 294 294 293 293 292 291 290 290 289 288 287 287 286 285 285 284 283 282 282 281 280 280 279 278 277 276 276 275 274 274 273 272 272 271 270 270 269 268 267 267 266 265 264 263
298 298 298 299 299 299 300 300 301 301 302 302 303 303 303 303 303 303 303 303 302 302 302 302 301 301 301 300 300 300 300 300 300 299 298 297 297 296 296 295 295 294 294 294 293 293 292 291 290 289 289 288 287 287 286 285 284 284 283 282 282 281 280 280 279 278 277 276 276 275 274 274 273 272 272 271 270 270 269 268 268 267 266 265 264 263
298 298 299 299 300 300 301 301 302 302 303 303 303 303 303 303 303 303 303 302 302 302 302 301 301 301 301 300 300 300 300 300 300 299 298 297 296 296 295 295 295 294 294 294 293 292 292 291 290 289 289 288 287 286 286 285 284 284 283 282 282 281 280 279 279 278 277 276 276 275 274 274 273 273 272 271 271 270 269 268 268 267 266 265 264 263
299 299 299 300 300 301 302 302 303 303 303 304 304 304 304 304 303 303 303 302 302 302 302 301 301 301 300 300 300 300 300 300 300 299 298 297 296 295 295 295 295 294 294 293 293 292 292 291 290 289 289 288 287 287 286 285 284 284 283 282 281 281 280 279 278 278 277 276 276 275 274 274 273 273 272 271 271 270 269 269 268 267 266 265 264 264
299 300 300 301 302 302 303 303 304 304 304 304 304 304 304 304 303 303 303 302 302 302 302 301 301 300 300 300 300 300 300 300 299 299 297 296 296 295 295 295 295 294 294 293 293 292 291 291 290 289 289 288 287 287 286 285 285 284 283 282 282 281 280 279 278 278 277 276 276 275 274 274 273 272 272 271 271 270 269 268 268 267 266 265 265 264
301 301 302 302 303 304 304 304 304 304 305 304 304 304 304 303 303 303 303 302 302 302 301 301 301 300 300 300 300 300 300 300 299 298 297 296 295 295 295 295 294 294 293 293 293 292 291 291 290 290 289 288 288 287 286 286 285 284 284 283 282 281 280 279 278 278 277 276 276 275 274 273 273 272 271 271 270 270 269 268 267 267 266 265 265 264
302 302 303 304 304 304 305 305 305 305 305 305 304 304 304 303 303 303 302 302 302 302 301 301 300 300 300 300 300 299 299 299 299 298 297 296 295 295 295 295 294 294 293 293 292 292 291 291 290 290 289 289 288 287 286 286 285 285 284 283 282 281 280 279 279 278 277 276 275 275 274 273 273 272 271 271 270 269 268 268 267 266 266 265 265 264
303 304 304 305 305 305 305 305 305 305 305 304 304 304 304 303 303 303 303 302 302 302 301 301 300 300 300 299 299 299 299 299 298 297 296 295 295 294 295 295 294 294 293 293 292 292 291 291 290 290 289 289 288 287 287 286 286 285 285 284 283 282 281 280 279 278 277 277 276 275 274 273 273 272 271 271 270 269 268 268 267 266 266 265 265 264
304 305 305 305 305 305 305 305 305 305 304 304 304 304 303 303 303 303 302 302 302 302 301 301 300 300 299 299 299 299 299 299 298 297 296 295 295 294 295 295 294 294 293 293 293 292 291 291 290 290 289 289 288 288 287 287 286 286 285 284 283 282 281 280 280 279 278 277 276 276 275 274 273 273 272 271 270 269 268 268 267 266 266 265 265 264
305 305 305 305 306 305 305 305 305 304 304 304 304 304 303 303 303 303 302 302 302 301 301 300 300 299 299 299 299 299 299 298 298 297 296 295 294 294 294 295 294 294 293 293 293 292 292 291 291 290 289 289 288 288 287 287 287 286 285 284 283 283 282 281 280 279 279 278 277 276 275 275 274 273 272 271 270 269 268 268 267 267 266 266 265 264
306 306 306 306 305 305 305 305 304 304 304 304 304 304 303 303 303 302 302 302 301 301 300 300 300 299 299 299 299 299 299 298 298 297 296 295 294 294 294 295 294 294 294 293 293 292 292 291 291 290 289 289 288 288 288 288 287 286 286 285 284 283 282 281 281 280 279 278 277 277 276 275 275 274 273 272 270 270 269 268 267 267 266 266 265 265
306 306 306 305 305 305 305 305 304 304 304 304 304 304 303 303 303 302 302 302 301 301 300 300 299 299 299 299 299 299 299 298 298 297 296 295 294 294 294 294 294 294 294 293 293 292 292 292 291 290 290 289 288 288 288 288 287 287 286 285 284 283 283 282 281 280 279 279 278 277 276 276 275 274 273 272 271 270 269 268 268 267 267 266 265 265
306 306 306 305 305 305 305 305 304 304 304 304 304 304 303 303 303 302 302 301 301 301 300 300 299 299 299 299 298 298 298 298 298 297 296 295 294 294 294 294 294 294 294 294 293 293 292 292 291 291 290 289 289 289 288 288 287 287 286 285 284 283 283 282 281 280 280 279 278 278 277 276 275 274 273 272 271 270 269 268 268 267 267 266 266 265
306 306 306 305 305 305 305 305 305 304 304 304 304 304 303 303 302 302 301 301 301 300 300 300 299 299 299 299 298 298 298 298 298 297 296 295 294 294 294 294 294 294 294 294 293 293 292 292 291 291 290 289 289 289 289 288 288 287 286 285 284 284 283 282 282 281 280 280 279 278 277 276 275 274 273 272 271 270 269 269 268 267 267 266 266 265
306 306 306 305 305 305 305 305 305 305 304 304 304 303 303 303 302 302 301 301 301 300 300 299 299 299 299 299 299 298 298 298 298 297 296 295 295 294 294 294 294 294 294 294 294 293 292 292 292 291 290 290 289 289 289 288 288 287 286 285 285 284 284 283 282 282 281 280 280 279 278 277 276 275 274 273 272 271 270 269 269 268 267 267 266 266
306 306 306 306 306 306 305 305 305 305 304 304 304 303 303 302 302 302 301 301 301 300 300 300 299 299 299 299 299 299 299 299 298 297 296 296 295 295 295 295 295 294 294 294 294 293 293 292 292 291 290 290 290 289 289 288 287 287 286 285 285 285 284 284 283 283 282 281 281 279 278 277 276 275 274 273 272 271 271 270 269 269 268 268 267 266
306 306 306 306 306 306 306 305 305 305 304 304 304 303 303 303 302 302 301 301 301 300 300 300 299 299 299 299 299 299 299 299 298 298 297 296 296 296 295 295 295 295 295 294 294 293 293 293 292 291 290 290 290 290 289 289 288 287 286 286 285 285 285 285 284 284 283 282 281 280 279 278 277 276 274 273 273 272 271 270 270 269 269 268 268 267
307 307 306 306 306 306 306 305 305 305 304 304 304 303 303 303 302 302 301 301 301 300 300 300 299 299 299 299 298 298 299 299 299 298 297 297 296 296 296 296 296 296 295 295 294 294 293 293 293 292 291 290 290 290 289 289 288 287 287 286 286 286 286 286 286 285 284 284 282 281 280 279 278 276 275 274 273 272 272 271 270 270 269 269 268 267
307 307 307 307 306 306 306 306 305 305 305 304 304 304 303 303 303 302 302 301 301 300 300 300 300 299 299 299 299 299 299 299 299 298 298 297 297 296 296 296 296 296 296 295 295 294 294 294 294 293 292 291 290 290 290 289 288 288 287 287 287 287 287 287 287 286 286 284 283 282 281 280 279 277 276 275 274 273 272 271 270 270 269 268 268 267
307 307 307 307 306 306 306 306 305 305 305 305 305 304 304 304 303 303 302 302 301 301 300 300 300 299 299 299 299 299 299 299 299 298 298 297 297 297 297 297 297 297 296 296 295 294 294 294 294 294 293 292 291 290 289 289 288 288 288 288 288 288 289 288 288 287 286 285 284 283 282 281 279 278 277 275 274 273 272 272 271 270 269 268 268 267
307 307 307 307 307 306 306 306 306 306 305 305 305 305 304 304 304 303 303 302 302 301 301 300 300 300 299 299 299 299 299 299 298 298 297 297 296 296 296 297 297 297 296 296 296 295 294 294 294 293 293 292 291 290 289 288 288 288 288 289 289 290 290 290 289 288 287 285 284 283 282 281 280 278 277 275 274 273 273 272 271 270 269 268 268 267
307 307 307 307 307 307 307 306 306 306 306 306 305 305 305 304 304 303 303 303 302 302 301 300 300 300 300 299 299 299 299 299 298 298 297 296 296 296 296 296 296 296 296 296 296 295 294 293 293 293 292 292 291 290 289 288 288 288 289 289 290 291 291 291 290 289 288 286 285 284 283 282 280 279 277 276 274 273 272 271 270 270 269 268 267 267
308 307 307 307 307 307 307 307 307 307 306 306 306 305 305 305 304 304 304 303 303 302 301 301 300 300 299 299 299 299 298 298 298 297 297 296 296 295 295 295 296 296 296 296 296 295 294 293 292 292 292 291 291 290 289 287 287 288 289 290 291 292 293 292 291 290 289 287 286 285 284 282 281 279 277 276 274 273 272 271 270 269 268 267 267 266
308 308 308 308 308 308 308 307 307 307 307 306 306 306 305 305 305 304 304 304 303 302 302 301 301 300 300 299 299 298 298 297 297 297 297 296 295 295 294 295 295 295 295 295 295 294 293 293 292 291 291 291 291 290 289 288 288 288 289 290 291 293 293 293 292 291 290 288 287 286 285 283 282 280 278 276 274 273 271 270 268 268 267 266 265 265
308 309 309 309 309 308 308 308 308 307 307 307 306 306 306 305 305 305 304 304 303 303 302 301 301 300 300 299 298 298 297 297 297 296 296 295 295 294 294 294 294 294 294 294 294 293 293 292 292 291 291 291 290 290 289 288 288 289 290 291 292 293 294 294 293 292 290 289 288 287 286 285 284 283 281 279 276 274 272 269 268 267 266 265 264 264
309 309 309 309 309 309 309 308 308 308 307 307 307 306 306 306 305 305 304 304 303 303 302 301 301 300 300 299 298 298 297 296 296 296 295 295 294 294 294 293 293 294 294 294 293 293 292 292 291 291 291 291 290 290 289 289 289 289 290 292 293 294 294 294 293 292 291 290 289 288 288 287 286 285 284 282 280 277 274 272 270 268 267 266 264 263
310 310 310 310 310 310 309 309 309 308 308 307 307 307 306 306 305 305 304 304 303 303 302 302 301 300 300 299 299 298 297 296 296 295 295 294 294 294 293 293 293 293 293 293 293 293 292 291 291 291 291 291 291 290 290 290 290 290 291 293 293 294 293 293 292 291 290 289 289 288 288 288 288 287 286 284 282 280 278 276 274 272 270 268 267 265
311 311 311 311 311 310 310 309 309 309 308 308 307 307 306 306 305 305 305 304 304 303 303 302 301 301 300 299 299 298 297 296 296 295 294 294 294 293 293 292 292 292 292 292 293 292 292 291 290 290 290 290 290 290 291 291 291 292 293 294 294 294 293 293 292 290 289 288 288 287 287 288 288 287 287 285 283 282 280 279 277 275 273 271 270 268
312 312 312 311 311 311 310 310 309 309 309 308 308 307 307 306 306 305 305 305 304 304 303 303 302 301 301 300 299 298 298 297 296 295 294 294 293 293 292 292 292 292 292 292 292 292 291 290 289 289 289 289 290 290 291 292 293 293 294 294 294 294 294 293 292 290 288 287 287 287 286 287 287 286 285 284 283 282 281 280 278 277 276 274 273 271
313 312 312 312 311 311 311 310 310 310 309 309 308 308 307 307 306 306 306 305 305 305 304 304 303 302 302 301 300 299 298 297 296 295 294 293 293 292 292 291 291 291 292 292 292 292 291 290 288 288 288 288 289 291 292 294 294 295 295 295 294 295 295 294 293 290 288 286 286 285 285 285 285 284 284 283 282 282 281 280 279 278 277 276 275 274
313 313 313 312 312 312 311 311 311 310 310 309 309 309 308 308 307 307 307 306 306 306 305 305 304 303 303 302 301 300 299 298 297 295 294 293 292 291 291 291 291 291 292 292 292 291 290 289 288 287 287 288 289 291 293 295 296 296 295 295 295 295 295 295 294 292 289 287 286 285 285 284 284 283 282 282 282 281 281 281 280 279 278 277 277 276
314 313 313 313 313 312 312 312 311 311 311 310 310 309 309 309 308 308 308 307 307 307 306 306 305 305 304 303 302 301 300 299 297 295 294 292 291 290 290 290 291 292 292 292 291 290 288 287 286 286 286 288 290 292 295 296 296 296 296 295 295 295 296 295 294 293 291 289 287 286 285 284 283 283 282 282 282 282 282 282 281 281 280 279 278 277
314 314 314 314 313 313 313 312 312 312 311 311 310 310 310 309 309 309 308 308 308 308 307 307 306 306 305 304 303 302 300 299 297 296 294 292 290 289 290 290 291 292 292 291 290 288 287 286 285 286 287 289 291 294 295 296 296 296 296 296 296 296 296 295 294 294 292 291 289 288 286 285 285 284 284 284 285 285 285 284 284 283 282 281 279 278
315 315 314 314 314 314 313 313 313 312 312 312 311 311 311 310 310 310 310 309 309 309 308 308 307 306 306 304 303 302 301 299 298 296 294 292 290 290 290 291 291 292 291 290 288 286 285 284 285 286 288 290 292 294 295 296 296 297 297 297 297 297 296 296 295 294 293 292 291 290 289 288 288 288 288 288 288 288 288 287 286 284 283 282 281 279
316 315 315 315 314 314 314 314 314 313 313 313 312 312 312 312 311 311 311 310 310 310 309 309 308 307 306 305 304 302 301 299 298 296 294 292 291 290 291 291 291 291 290 288 287 285 285 285 286 287 289 291 293 294 295 296 297 298 298 298 298 297 297 296 296 295 294 293 292 292 291 292 292 292 293 293 293 292 291 289 287 286 284 283 282 280
316 316 316 315 315 315 315 315 315 315 314 313 313 313 313 313 313 312 312 312 311 311 310 310 309 308 307 305 304 302 301 299 298 296 295 293 292 292 291 291 291 290 288 287 286 285 285 286 288 289 291 292 293 294 295 297 298 299 299 299 298 298 297 297 296 295 294 293 293 293 294 294 295 296 297 297 296 295 293 291 288 286 284 283 282 281
317 316 316 316 317 316 316 316 316 315 315 314 314 314 314 314 314 314 313 313 313 312 311 311 309 308 307 306 304 303 301 300 298 297 296 295 294 293 291 291 289 288 287 286 286 286 287 288 290 291 292 293 294 295 297 299 300 300 300 299 298 297 297 296 296 295 294 294 294 294 295 296 297 298 298 298 297 295 293 290 288 286 285 284 283 283
Height
10443 10440 10438 10436 10433 10430 10425 10422 10420 10417 10412 10407 10405 10402 10400 10395 10391 10387 10383 10380 10376 10371 10367 10363 10358 10355 10351 10347 10343 10340 10336 10333 10330 10328 10325 10322 10320 10317 10314 10311 10307 10303 10299 10295 10291 10287 10282 10278 10275 10270 10267 10262 10258 10255 10252 10249 10246 10243 10240 10237 10234 10231 10228 10226 10225 10223 10222 10222 10221 10220 10220 10220 10220 10220 10219 10219 10220 10220 10220 10220 10220 10220 10220 10221 10221 10222
10435 10432 10429 10427 10425 10421 10417 10412 10410 10407 10403 10399 10395 10392 10389 10386 10382 10377 10373 10369 10365 10360 10356 10352 10348 10343 10340 10336 10332 10329 10326 10322 10319 10317 10314 10311 10308 10305 10302 10298 10294 10290 10285 10281 10277 10272 10268 10264 10260 10257 10253 10249 10245 10242 10239 10236 10233 10230 10227 10224 10221 10218 10216 10214 10213 10212 10211 10210 10210 10210 10210 10209 10209 10208 10208 10208 10208 10208 10208 10208 10208 10208 10209 10210 10210 10211
10427 10423 10420 10418 10415 10412 10408 10403 10400 10397 10393 10390 10386 10382 10379 10375 10371 10367 10362 10358 10353 10349 10345 10341 10337 10333 10329 10325 10322 10318 10315 10312 10308 10305 10302 10299 10296 10293 10289 10285 10280 10276 10271 10267 10262 10258 10254 10250 10247 10243 10239 10236 10233 10229 10227 10223 10220 10217 10215 10212 10209 10207 10205 10203 10202 10202 10201 10200 10200 10200 10199 10198 10198 10198 10198 10197 10197 10197 10197 10197 10197 10198 10198 10199 10200 10200
10419 10415 10412 10408 10406 10403 10398 10395 10390 10387 10383 10380 10377 10373 10369 10365 10361 10357 10352 10348 10343 10338 10333 10330 10326 10323 10318 10314 10310 10307 10304 10301 10297 10293 10290 10287 10283 10280 10276 10271 10267 10262 10257 10252 10248 10244 10240 10237 10233 10230 10227 10223 10220 10217 10214 10211 10208 10205 10203 10200 10198 10196 10195 10193 10192 10192 10191 10190 10190 10190 10189 10188 10188 10187 10187 10187 10186 10186 10187 10187 10187 10187 10188 10189 10190 10190
10411 10408 10403 10400 10397 10393 10389 10385 10382 10377 10373 10370 10367 10363 10360 10355 10351 10346 10342 10337 10333 10328 10324 10320 10315 10312 10308 10303 10300 10296 10293 10289 10285 10282 10278 10275 10271 10267 10262 10257 10252 10247 10243 10238 10235 10231 10227 10224 10221 10218 10215 10212 10208 10205 10202 10199 10197 10194 10192 10190 10188 10186 10185 10184 10183 10182 10182 10181 10180 10179 10178 10178 10177 10177 10177 10176 10176 10176 10177 10177 10177 10178 10178 10179 10180 10180
10402 10399 10396 10392 10388 10383 10379 10376 10372 10368 10364 10360 10357 10353 10351 10347 10342 10337 10332 10327 10322 10318 10314 10310 10305 10301 10297 10293 10288 10285 10282 10278 10274 10270 10266 10262 10258 10253 10248 10243 10238 10233 10229 10225 10222 10218 10215 10212 10209 10206 10203 10200 10197 10193 10191 10188 10186 10183 10182 10180 10178 10177 10175 10175 10174 10173 10172 10171 10170 10169 10168 10167 10167 10167 10167 10167 10167 10167 10167 10167 10168 10168 10169 10170 10170 10171
10393 10390 10387 10383 10379 10374 10370 10366 10363 10359 10355 10350 10346 10342 10340 10337 10332 10328 10323 10317 10312 10307 10303 10299 10295 10290 10286 10282 10278 10274 10270 10266 10262 10258 10254 10250 10245 10240 10235 10230 10225 10220 10217 10213 10210 10207 10204 10201 10198 10195 10192 10188 10185 10183 10180 10178 10176 10173 10172 10170 10169 10168 10167 10165 10165 10163 10162 10162 10160 10159 10158 10158 10158 10157 10157 10157 10157 10158 10158 10158 10158 10159 10160 10160 10161 10162
10384 10380 10377 10373 10370 10365 10360 10355 10352 10349 10347 10342 10337 10332 10328 10325 10321 10317 10313 10309 10303 10298 10293 10288 10283 10278 10274 10270 10267 10263 10259 10255 10250 10246 10242 10238 10232 10227 10222 10217 10213 10208 10205 10202 10199 10196 10193 10190 10187 10184 10181 10178 10175 10173 10170 10168 10166 10164 10163 10162 10160 10159 10158 10157 10155 10154 10153 10152 10151 10150 10150 10149 10148 10148 10148 10148 10148 10148 10148 10149 10149 10150 10150 10151 10152 10152
10376 10372 10367 10363 10359 10355 10351 10345 10340 10336 10335 10332 10328 10323 10318 10315 10310 10305 10301 10297 10293 10289 10284 10278 10273 10267 10262 10257 10254 10251 10248 10244 10239 10234 10229 10225 10220 10215 10209 10205 10201 10197 10193 10191 10188 10185 10183 10180 10177 10174 10171 10168 10165 10163 10161 10158 10157 10155 10154 10153 10152 10150 10149 10147 10146 10145 10144 10143 10142 10142 10141 10140 10140 10140 10140 10139 10140 10140 10140 10140 10140 10141 10142 10142 10143 10143
10366 10362 10358 10353 10348 10345 10342 10336 10330 10325 10322 10320 10317 10312 10309 10306 10302 10297 10290 10285 10280 10277 10273 10268 10262 10257 10251 10245 10241 10238 10235 10232 10228 10223 10217 10213 10208 10203 10198 10194 10190 10186 10183 10180 10178 10175 10173 10170 10167 10164 10162 10158 10157 10154 10152 10150 10148 10147 10145 10144 10143 10142 10140 10138 10137 10136 10135 10135 10134 10133 10133 10132 10132 10131 10131 10131 10131 10131 10132 10132 10132 10133 10133 10133 10134 10135
10356 10352 10348 10343 10338 10334 10330 10326 10321 10317 10313 10310 10306 10302 10298 10295 10293 10290 10283 10276 10270 10265 10261 10257 10250 10245 10240 10235 10230 10226 10222 10220 10216 10211 10205 10200 10196 10192 10188 10184 10180 10177 10173 10170 10168 10166 10163 10161 10158 10155 10152 10150 10148 10145 10143 10142 10140 10138 10137 10136 10135 10133 10132 10130 10129 10128 10127 10127 10126 10125 10125 10124 10123 10123 10123 10123 10123 10123 10123 10123 10123 10124 10125 10125 10126 10127
10346 10342 10338 10333 10328 10323 10319 10315 10311 10307 10304 10301 10297 10292 10287 10283 10281 10279 10275 10268 10261 10255 10250 10245 10238 10232 10227 10223 10220 10216 10212 10208 10205 10199 10193 10188 10183 10180 10178 10174 10170 10167 10164 10162 10159 10157 10154 10152 10148 10146 10143 10141 10139 10137 10135 10133 10132 10130 10129 10128 10127 10125 10124 10123 10122 10120 10120 10119 10118 10117 10117 10116 10116 10115 10115 10115 10115 10115 10115 10115 10115 10116 10117 10117 10117 10118
10337 10332 10328 10323 10318 10314 10310 10306 10302 10298 10294 10291 10288 10284 10279 10273 10270 10267 10263 10257 10251 10245 10240 10235 10228 10220 10214 10210 10208 10205 10203 10199 10194 10188 10182 10177 10173 10170 10168 10165 10160 10157 10155 10153 10150 10148 10146 10143 10140 10137 10135 10133 10131 10129 10127 10125 10124 10123 10121 10120 10118 10117 10116 10115 10114 10113 10112 10111 10110 10110 10109 10108 10108 10108 10108 10108 10107 10107 10107 10108 10108 10108 10108 10109 10110 10110
10327 10323 10318 10313 10309 10305 10302 10297 10293 10288 10285 10282 10278 10275 10270 10265 10260 10256 10252 10246 10240 10233 10228 10223 10217 10210 10203 10198 10197 10195 10193 10190 10185 10178 10172 10166 10162 10160 10158 10155 10152 10148 10146 10144 10142 10140 10137 10135 10132 10129 10127 10125 10123 10121 10120 10118 10117 10115 10114 10112 10111 10110 10109 10108 10107 10106 10105 10104 10103 10103 10102 10102 10101 10101 10100 10100 10100 10100 10100 10100 10100 10101 10101 10102 10102 10102
10318 10314 10310 10304 10300 10295 10292 10288 10284 10280 10276 10272 10269 10265 10261 10255 10250 10244 10240 10234 10228 10222 10217 10212 10205 10198 10192 10187 10185 10185 10184 10180 10175 10169 10162 10156 10152 10151 10150 10147 10143 10139 10137 10135 10133 10132 10129 10127 10123 10121 10119 10117 10115 10113 10112 10111 10110 10108 10107 10105 10104 10103 10102 10101 10100 10099 10098 10097 10097 10096 10095 10095 10094 10094 10094 10093 10093 10093 10093 10093 10093 10093 10094 10094 10095 10095
10309 10305 10302 10296 10291 10287 10283 10279 10275 10272 10267 10263 10259 10255 10250 10245 10238 10233 10228 10222 10216 10210 10205 10200 10194 10188 10181 10176 10173 10174 10174 10172 10167 10160 10153 10147 10143 10141 10141 10138 10135 10132 10129 10127 10125 10123 10121 10118 10116 10113 10112 10110 10108 10107 10105 10104 10103 10102 10100 10099 10098 10097 10095 10094 10093 10092 10092 10090 10090 10089 10088 10088 10088 10087 10087 10087 10087 10087 10087 10087 10087 10087 10087 10087 10087 10088
10300 10297 10292 10288 10282 10278 10274 10270 10266 10262 10257 10253 10249 10245 10239 10233 10227 10222 10216 10210 10205 10199 10194 10188 10183 10178 10172 10167 10163 10163 10164 10162 10158 10152 10145 10138 10134 10132 10132 10130 10128 10124 10121 10120 10118 10115 10113 10110 10108 10106 10105 10103 10101 10100 10098 10097 10096 10095 10093 10092 10092 10090 10089 10088 10087 10086 10085 10084 10083 10083 10082 10082 10082 10081 10081 10080 10080 10080 10080 10080 10080 10080 10080 10080 10080 10080
10291 10287 10283 10278 10273 10269 10265 10261 10257 10252 10247 10242 10238 10233 10227 10221 10215 10209 10204 10198 10193 10188 10183 10178 10173 10168 10163 10159 10155 10153 10154 10153 10149 10143 10137 10130 10126 10123 10123 10123 10120 10117 10114 10112 10110 10108 10105 10103 10101 10099 10097 10096 10094 10093 10092 10090 10089 10088 10087 10086 10085 10084 10083 10082 10081 10080 10079 10078 10078 10077 10077 10076 10075 10075 10075 10075 10074 10074 10074 10073 10073 10073 10073 10073 10073 10074
10281 10277 10273 10269 10265 10260 10255 10250 10246 10242 10237 10232 10227 10221 10215 10209 10203 10197 10192 10187 10182 10177 10172 10168 10163 10158 10155 10151 10148 10146 10145 10144 10140 10135 10128 10122 10117 10115 10115 10115 10113 10110 10107 10105 10103 10101 10098 10096 10094 10092 10091 10089 10088 10086 10085 10084 10083 10082 10081 10080 10079 10078 10077 10076 10075 10074 10073 10073 10072 10072 10071 10070 10070 10070 10069 10069 10068 10068 10068 10068 10067 10067 10067 10067 10067 10067
10271 10267 10263 10260 10256 10251 10245 10238 10233 10230 10226 10221 10215 10210 10204 10198 10192 10186 10180 10175 10171 10167 10162 10158 10153 10148 10145 10142 10140 10138 10138 10136 10132 10127 10120 10114 10110 10108 10108 10107 10105 10103 10100 10098 10097 10095 10092 10089 10087 10086 10084 10083 10081 10080 10078 10078 10077 10076 10075 10074 10073 10072 10071 10070 10070 10068 10068 10067 10067 10066 10065 10065 10065 10064 10063 10063 10063 10063 10062 10062 10062 10062 10061 10061 10061 10062
10262 10257 10252 10248 10245 10241 10235 10228 10222 10218 10213 10209 10204 10198 10192 10187 10181 10175 10170 10165 10161 10157 10152 10148 10143 10139 10137 10134 10132 10130 10130 10128 10125 10120 10113 10107 10102 10100 10100 10100 10098 10096 10094 10092 10090 10088 10085 10083 10081 10080 10078 10076 10075 10073 10072 10072 10071 10070 10069 10068 10067 10067 10065 10065 10064 10063 10062 10062 10061 10060 10060 10060 10059 10059 10058 10058 10058 10057 10057 10057 10056 10056 10055 10055 10055 10055
10253 10248 10242 10238 10234 10230 10224 10218 10212 10207 10202 10197 10193 10187 10182 10176 10171 10165 10160 10156 10152 10147 10143 10138 10133 10130 10127 10125 10124 10123 10123 10121 10118 10113 10107 10100 10095 10093 10093 10093 10092 10090 10087 10085 10084 10082 10080 10077 10075 10073 10072 10070 10068 10067 10067 10066 10065 10065 10063 10062 10062 10060 10060 10059 10058 10058 10057 10057 10056 10055 10055 10054 10054 10053 10053 10053 10052 10052 10052 10051 10050 10050 10050 10050 10050 10050
10243 10238 10233 10228 10223 10218 10213 10208 10202 10196 10191 10186 10182 10177 10172 10167 10162 10157 10152 10147 10143 10139 10134 10129 10125 10121 10118 10117 10116 10115 10115 10114 10111 10106 10100 10094 10089 10087 10087 10087 10085 10083 10081 10080 10078 10076 10074 10072 10070 10068 10067 10065 10063 10062 10061 10060 10060 10059 10058 10057 10056 10055 10054 10053 10053 10052 10052 10051 10050 10050 10049 10049 10048 10048 10048 10048 10047 10047 10046 10046 10045 10045 10045 10045 10045 10045
10233 10228 10223 10218 10213 10208 10203 10197 10191 10185 10180 10176 10171 10167 10163 10158 10153 10148 10143 10139 10135 10131 10126 10122 10117 10113 10110 10108 10108 10107 10107 10107 10103 10099 10094 10088 10083 10081 10080 10080 10078 10077 10075 10073 10072 10070 10068 10067 10065 10063 10062 10060 10058 10057 10056 10055 10055 10053 10053 10052 10051 10050 10049 10048 10047 10047 10047 10046 10045 10045 10044 10044 10043 10043 10043 10042 10042 10042 10041 10040 10040 10040 10040 10040 10040 10040
10224 10220 10214 10208 10203 10198 10192 10187 10181 10176 10172 10167 10163 10159 10154 10149 10143 10138 10134 10130 10127 10123 10118 10114 10110 10106 10103 10101 10100 10099 10099 10099 10097 10092 10088 10083 10078 10075 10074 10074 10073 10070 10068 10067 10066 10065 10063 10062 10060 10058 10057 10054 10053 10052 10051 10050 10050 10048 10048 10047 10046 10045 10044 10043 10042 10042 10041 10040 10040 10040 10039 10039 10038 10038 10038 10037 10037 10037 10036 10035 10035 10035 10035 10035 10035 10035
10215 10210 10205 10199 10193 10188 10182 10177 10172 10167 10162 10158 10153 10148 10144 10139 10134 10130 10125 10122 10118 10115 10111 10107 10103 10099 10096 10093 10092 10092 10092 10092 10090 10086 10082 10077 10073 10070 10069 10068 10067 10065 10063 10061 10060 10059 10058 10056 10055 10053 10052 10050 10048 10047 10046 10045 10045 10044 10043 10042 10041 10040 10039 10038 10037 10037 10036 10036 10035 10035 10035 10034 10033 10033 10033 10032 10032 10032 10031 10031 10030 10030 10030 10030 10030 10030
10204 10199 10194 10188 10183 10177 10172 10167 10162 10157 10153 10148 10145 10141 10137 10132 10127 10122 10118 10114 10110 10107 10103 10100 10096 10092 10089 10087 10085 10084 10084 10084 10082 10080 10076 10072 10068 10066 10064 10063 10062 10060 10058 10056 10055 10054 10053 10052 10050 10048 10047 10045 10043 10042 10042 10041 10040 10039 10038 10037 10037 10035 10035 10033 10033 10032 10032 10031 10030 10030 10030 10030 10029 10028 10028 10027 10027 10027 10027 10026 10025 10025 10025 10025 10025 10025
10193 10188 10183 10178 10173 10167 10162 10157 10152 10148 10144 10140 10137 10133 10129 10125 10120 10115 10111 10107 10103 10100 10096 10093 10090 10086 10083 10080 10078 10077 10077 10077 10076 10073 10070 10067 10063 10061 10060 10058 10057 10055 10053 10051 10050 10048 10048 10047 10045 10043 10042 10040 10039 10038 10037 10037 10035 10034 10033 10033 10032 10031 10030 10029 10028 10027 10027 10026 10026 10025 10025 10025 10024 10023 10023 10023 10022 10022 10022 10022 10021 10021 10020 10020 10020 10020
10183 10178 10172 10167 10162 10158 10153 10148 10143 10139 10135 10132 10128 10125 10121 10117 10113 10108 10104 10100 10097 10093 10089 10087 10083 10080 10077 10073 10072 10070 10070 10070 10070 10067 10063 10060 10058 10056 10055 10053 10052 10051 10049 10047 10045 10043 10043 10042 10041 10039 10037 10036 10035 10033 10033 10032 10031 10030 10029 10028 10027 10027 10025 10025 10023 10023 10022 10022 10021 10021 10020 10020 10020 10019 10018 10018 10018 10017 10017 10017 10017 10016 10016 10016 10016 10016
10171 10167 10162 10157 10152 10148 10143 10139 10135 10131 10127 10123 10120 10117 10113 10110 10106 10102 10098 10094 10090 10087 10083 10080 10077 10074 10072 10068 10065 10063 10063 10063 10063 10062 10058 10055 10052 10050 10050 10048 10047 10046 10045 10043 10040 10038 10038 10038 10037 10035 10033 10032 10030 10029 10028 10027 10027 10025 10025 10023 10023 10022 10022 10020 10019 10018 10018 10017 10017 10017 10016 10015 10015 10015 10014 10013 10013 10013 10013 10013 10012 10012 10012 10012 10012 10012
10161 10156 10152 10147 10142 10138 10134 10130 10126 10122 10118 10115 10112 10108 10105 10102 10099 10095 10092 10088 10085 10081 10077 10074 10071 10068 10066 10063 10060 10058 10057 10057 10057 10055 10053 10050 10047 10045 10045 10043 10042 10042 10041 10039 10037 10034 10032 10032 10033 10032 10030 10028 10026 10025 10024 10023 10022 10021 10020 10020 10019 10018 10017 10016 10015 10014 10013 10013 10012 10012 10012 10011 10011 10010 10010 10009 10009 10008 10008 10008 10008 10008 10007 10007 10007 10007
10152 10147 10142 10138 10133 10129 10125 10122 10118 10114 10110 10107 10104 10101 10098 10095 10092 10088 10085 10082 10078 10075 10072 10068 10066 10063 10061 10058 10056 10053 10052 10051 10050 10050 10048 10045 10042 10040 10040 10038 10038 10037 10036 10035 10033 10031 10028 10027 10027 10028 10027 10025 10023 10022 10020 10019 10018 10017 10016 10015 10015 10014 10013 10012 10012 10010 10009 10008 10008 10008 10007 10007 10007 10006 10005 10005 10005 10005 10005 10004 10004 10004 10003 10003 10003 10003
10143 10139 10135 10130 10125 10122 10117 10113 10110 10106 10103 10099 10096 10093 10090 10087 10084 10082 10078 10076 10073 10070 10067 10063 10060 10058 10055 10053 10051 10048 10047 10046 10045 10044 10042 10040 10037 10035 10035 10034 10033 10032 10032 10030 10029 10027 10025 10023 10023 10023 10022 10022 10020 10018 10016 10015 10013 10012 10012 10011 10011 10010 10010 10009 10008 10007 10005 10004 10004 10003 10003 10003 10003 10002 10002 10002 10001 10001 10000 10000 10000 10000 10000 10000 9999 9999
10136 10132 10127 10123 10118 10114 10110 10106 10102 10099 10095 10092 10089 10086 10083 10080 10077 10075 10072 10070 10067 10064 10061 10058 10055 10053 10050 10048 10046 10043 10042 10042 10041 10040 10038 10035 10033 10031 10030 10028 10028 10027 10027 10025 10024 10023 10022 10020 10018 10018 10018 10017 10017 10015 10013 10012 10010 10008 10008 10007 10007 10006 10006 10005 10004 10003 10002 10000 10000 10000 9999 9999 9998 9998 9998 9998 9997 9997 9997 9997 9997 9997 9996 9996 9995 9995
10128 10124 10120 10115 10111 10107 10103 10099 10095 10092 10088 10085 10082 10079 10076 10073 10070 10068 10065 10063 10061 10058 10056 10053 10051 10048 10046 10043 10041 10039 10037 10037 10036 10035 10033 10032 10029 10027 10025 10024 10023 10023 10022 10021 10020 10019 10017 10016 10015 10014 10013 10013 10013 10012 10010 10008 10007 10005 10003 10003 10003 10002 10002 10002 10000 9999 9998 9997 9997 9996 9995 9995 9995 9995 9995 9994 9994 9993 9993 9993 9993 9993 9992 9992 9992 9992
10121 10117 10113 10108 10105 10100 10096 10092 10088 10085 10082 10078 10075 10073 10070 10067 10064 10062 10060 10057 10055 10053 10050 10048 10046 10044 10042 10040 10037 10035 10032 10031 10030 10030 10028 10027 10025 10023 10021 10019 10018 10018 10018 10017 10016 10015 10013 10012 10011 10010 10010 10009 10008 10008 10007 10005 10003 10002 10000 10000 9999 9998 9998 9998 9997 9995 9994 9993 9993 9992 9992 9992 9992 9992 9991 9991 9991 9990 9990 9990 9989 9989 9989 9988 9988 9988
10114 10110 10106 10102 10098 10094 10090 10086 10082 10079 10075 10072 10069 10067 10063 10061 10058 10056 10054 10052 10050 10047 10045 10043 10041 10039 10037 10035 10033 10031 10028 10027 10025 10024 10023 10022 10021 10019 10017 10015 10015 10014 10013 10013 10012 10010 10010 10008 10007 10007 10006 10005 10005 10005 10003 10003 10001 9999 9997 9997 9996 9995 9995 9994 9993 9992 9990 9990 9989 9988 9988 9988 9988 9988 9988 9988 9988 9987 9987 9987 9986 9986 9985 9985 9985 9984
10107 10103 10100 10096 10092 10088 10084 10080 10077 10073 10070 10067 10063 10060 10058 10055 10053 10050 10048 10046 10044 10042 10040 10038 10036 10034 10033 10032 10030 10027 10025 10022 10020 10019 10018 10017 10016 10015 10013 10011 10010 10010 10009 10009 10008 10007 10006 10004 10003 10002 10002 10002 10002 10001 10000 9999 9998 9996 9995 9993 9993 9992 9992 9990 9990 9988 9987 9986 9985 9985 9985 9985 9985 9985 9985 9985 9984 9984 9983 9983 9982 9982 9982 9981 9981 9980
10101 10097 10093 10090 10086 10082 10078 10074 10071 10067 10064 10061 10058 10055 10052 10050 10047 10045 10043 10041 10039 10037 10035 10033 10031 10029 10028 10027 10025 10023 10021 10018 10016 10015 10013 10012 10011 10010 10009 10007 10006 10005 10005 10005 10004 10003 10002 10001 10000 9998 9998 9998 9997 9997 9997 9996 9995 9993 9992 9990 9990 9989 9988 9987 9986 9985 9984 9983 9982 9982 9981 9981 9981 9981 9981 9981 9981 9980 9980 9979 9978 9978 9978 9977 9977 9977
10094 10090 10087 10083 10080 10076 10073 10069 10065 10062 10059 10056 10053 10050 10047 10045 10042 10040 10038 10036 10034 10032 10030 10028 10026 10024 10023 10022 10020 10018 10017 10014 10012 10010 10008 10007 10006 10005 10004 10003 10002 10001 10001 10000 10000 10000 9998 9997 9996 9995 9994 9993 9993 9993 9993 9992 9991 9990 9988 9987 9987 9986 9986 9985 9983 9982 9981 9980 9979 9978 9978 9978 9977 9977 9977 9977 9977 9977 9976 9975 9975 9974 9974 9973 9973 9973
10088 10084 10081 10077 10074 10070 10067 10064 10061 10057 10054 10051 10048 10045 10042 10040 10037 10035 10032 10030 10028 10027 10025 10023 10021 10019 10018 10017 10015 10014 10012 10010 10008 10006 10004 10002 10001 10000 9999 9998 9998 9997 9997 9996 9996 9995 9995 9993 9992 9991 9990 9990 9990 9989 9989 9989 9988 9987 9986 9985 9983 9983 9983 9982 9982 9980 9978 9978 9977 9976 9975 9975 9974 9974 9974 9974 9973 9973 9972 9972 9971 9970 9970 9969 9969 9968
10082 10078 10075 10072 10068 10065 10062 10058 10055 10053 10050 10047 10043 10040 10037 10035 10032 10029 10027 10025 10023 10022 10020 10018 10015 10013 10012 10011 10010 10009 10008 10006 10004 10002 10000 9998 9997 9995 9995 9994 9993 9993 9992 9992 9992 9992 9991 9990 9989 9988 9987 9986 9985 9985 9985 9985 9985 9984 9983 9982 9980 9980 9980 9980 9979 9978 9977 9975 9975 9974 9973 9972 9972 9972 9971 9971 9970 9970 9969 9968 9967 9967 9966 9965 9965 9965
10076 10073 10069 10066 10063 10060 10057 10053 10050 10048 10045 10042 10039 10036 10033 10030 10027 10024 10022 10020 10018 10016 10014 10012 10010 10008 10007 10006 10005 10004 10003 10002 10000 9998 9995 9993 9992 9991 9990 9990 9989 9989 9988 9988 9988 9988 9987 9987 9985 9984 9983 9983 9982 9982 9982 9982 9982 9981 9980 9978 9978 9977 9977 9977 9976 9975 9975 9973 9973 9972 9971 9970 9969 9968 9968 9968 9967 9967 9965 9965 9964 9963 9962 9962 9962 9962
10070 10067 10064 10061 10058 10055 10052 10048 10045 10043 10040 10037 10034 10031 10028 10025 10022 10019 10017 10015 10012 10010 10008 10007 10005 10003 10002 10000 10000 9998 9998 9997 9996 9994 9992 9990 9988 9987 9986 9985 9985 9985 9985 9985 9985 9984 9983 9983 9982 9981 9980 9979 9979 9978 9978 9978 9978 9978 9977 9976 9975 9974 9973 9973 9973 9973 9972 9972 9970 9970 9968 9968 9967 9966 9965 9965 9964 9963 9963 9962 9960 9960 9959 9959 9958 9958
10065 10062 10059 10056 10053 10050 10047 10043 10040 10038 10035 10032 10029 10026 10023 10020 10017 10015 10012 10010 10007 10005 10003 10002 10000 9998 9997 9996 9995 9993 9993 9992 9992 9990 9988 9987 9985 9983 9982 9982 9982 9982 9982 9982 9982 9981 9980 9980 9978 9978 9977 9976 9976 9976 9976 9975 9975 9975 9974 9973 9972 9972 9971 9970 9970 9970 9969 9968 9968 9967 9966 9965 9964 9963 9962 9962 9961 9960 9960 9958 9958 9957 9957 9956 9956 9955
10061 10058 10054 10051 10048 10045 10042 10038 10035 10033 10030 10027 10024 10021 10018 10015 10012 10010 10007 10005 10003 10001 9999 9997 9996 9994 9993 9991 9990 9989 9988 9988 9987 9986 9985 9983 9982 9980 9978 9978 9978 9978 9978 9978 9978 9978 9977 9976 9975 9975 9974 9973 9973 9973 9973 9973 9972 9972 9971 9970 9970 9969 9968 9968 9967 9967 9966 9965 9965 9964 9963 9962 9962 9960 9960 9959 9958 9958 9957 9956 9955 9954 9953 9953 9953 9953
10057 10053 10050 10047 10043 10040 10037 10034 10031 10027 10025 10022 10018 10016 10013 10010 10008 10005 10003 10000 9998 9997 9995 9993 9992 9990 9988 9987 9986 9985 9984 9983 9983 9982 9981 9980 9978 9977 9976 9975 9975 9975 9975 9975 9975 9974 9973 9973 9972 9972 9972 9972 9972 9971 9971 9970 9970 9969 9968 9968 9967 9967 9966 9965 9965 9964 9963 9963 9962 9961 9960 9959 9958 9957 9957 9956 9955 9955 9954 9953 9952 9952 9951 9950 9950 9950
10052 10048 10045 10042 10038 10035 10032 10029 10026 10023 10020 10017 10013 10011 10008 10006 10003 10001 9998 9996 9994 9992 9991 9989 9988 9986 9985 9983 9982 9981 9980 9979 9978 9978 9977 9976 9975 9974 9973 9973 9972 9972 9972 9972 9972 9971 9970 9970 9969 9969 9970 9970 9970 9969 9968 9968 9968 9967 9966 9965 9965 9964 9964 9963 9963 9962 9961 9960 9959 9958 9957 9957 9955 9955 9954 9953 9953 9952 9952 9951 9950 9949 9948 9948 9947 9947
10048 10045 10041 10038 10034 10031 10028 10024 10021 10018 10015 10012 10009 10007 10004 10002 9999 9997 9994 9992 9990 9988 9987 9985 9984 9982 9981 9980 9979 9978 9977 9976 9975 9975 9974 9973 9972 9972 9971 9970 9970 9970 9969 9969 9968 9968 9967 9967 9967 9967 9967 9968 9967 9967 9967 9966 9965 9965 9964 9963 9963 9962 9962 9961 9960 9960 9958 9957 9957 9955 9955 9953 9953 9952 9952 9951 9950 9950 9950 9948 9948 9947 9946 9945 9944 9943
10044 10041 10037 10033 10030 10027 10023 10020 10017 10013 10010 10007 10004 10002 10000 9997 9995 9993 9991 9988 9987 9985 9983 9982 9980 9979 9978 9977 9975 9975 9973 9973 9972 9972 9971 9970 9970 9969 9968 9968 9968 9967 9967 9967 9966 9965 9965 9965 9965 9965 9965 9965 9965 9965 9965 9964 9963 9963 9962 9962 9960 9960 9959 9958 9958 9957 9956 9955 9954 9953 9952 9952 9951 9950 9950 9949 9948 9948 9947 9947 9945 9945 9943 9943 9942 9941
10040 10037 10033 10029 10026 10022 10019 10016 10013 10009 10006 10003 10000 9998 9995 9993 9991 9989 9987 9985 9983 9982 9980 9978 9977 9976 9975 9973 9973 9972 9971 9970 9970 9969 9968 9968 9967 9967 9967 9966 9965 9965 9965 9964 9964 9963 9963 9963 9963 9963 9963 9963 9963 9963 9963 9963 9962 9962 9960 9960 9958 9958 9957 9956 9955 9955 9954 9953 9952 9952 9950 9950 9949 9948 9948 9947 9947 9945 9945 9944 9943 9942 9941 9940 9939 9938